GEFSSE_prec_meanprecacc_084.txt.gz
Total_Precipitation_Accumulation
0.47 0.23 0.41 0.42 0.34 0.28 0.28 0.29 0.29 0.28 0.28 0.27 0.25 0.21 0.17 0.14 0.12 0.14 0.15 0.12 0.13 0.16 0.21 0.25 0.26 0.28 0.29 0.31 0.37 0.44 0.45 0.45 0.40 0.31 0.27 0.27 0.31 0.36 0.49 0.60 0.75 0.92 0.68
0.36 0.22 0.39 0.45 0.36 0.30 0.27 0.25 0.25 0.25 0.25 0.24 0.24 0.20 0.16 0.13 0.12 0.14 0.14 0.11 0.11 0.13 0.17 0.22 0.28 0.30 0.34 0.37 0.47 0.55 0.54 0.51 0.50 0.47 0.48 0.49 0.41 0.40 0.41 0.52 0.83 0.95 0.71
0.32 0.23 0.30 0.40 0.37 0.33 0.31 0.28 0.27 0.31 0.29 0.24 0.25 0.22 0.21 0.17 0.14 0.14 0.12 0.12 0.11 0.12 0.14 0.20 0.30 0.35 0.37 0.46 0.54 0.58 0.61 0.60 0.59 0.56 0.78 1.06 0.69 0.49 0.51 0.57 0.61 0.63 0.63
0.28 0.25 0.32 0.44 0.43 0.44 0.41 0.39 0.42 0.42 0.37 0.35 0.37 0.32 0.30 0.24 0.20 0.17 0.15 0.13 0.14 0.14 0.17 0.21 0.29 0.37 0.41 0.43 0.48 0.51 0.54 0.59 0.65 0.58 0.82 1.10 0.95 0.62 0.64 0.70 0.61 0.61 0.65
0.31 0.31 0.46 0.59 0.58 0.56 0.50 0.51 0.56 0.52 0.48 0.46 0.44 0.42 0.42 0.36 0.32 0.25 0.21 0.20 0.19 0.21 0.23 0.23 0.28 0.36 0.42 0.44 0.45 0.45 0.51 0.69 0.64 0.54 0.70 0.86 0.98 0.77 0.70 0.76 0.67 0.61 0.67
0.42 0.38 0.49 0.60 0.66 0.65 0.54 0.54 0.62 0.57 0.54 0.48 0.42 0.43 0.43 0.39 0.38 0.33 0.33 0.32 0.27 0.27 0.27 0.27 0.30 0.33 0.38 0.43 0.44 0.50 0.62 0.68 0.58 0.65 0.72 0.84 0.93 0.76 0.67 0.68 0.72 0.73 0.78
0.44 0.35 0.40 0.61 0.65 0.63 0.60 0.63 0.71 0.65 0.59 0.49 0.44 0.47 0.47 0.44 0.42 0.40 0.39 0.38 0.35 0.31 0.29 0.29 0.28 0.30 0.33 0.38 0.40 0.45 0.55 0.59 0.70 0.76 0.70 0.84 0.77 0.68 0.61 0.63 0.75 0.76 0.77
0.68 0.53 0.48 0.63 0.67 0.65 0.68 0.73 0.80 0.82 0.70 0.57 0.52 0.51 0.48 0.48 0.47 0.45 0.44 0.43 0.40 0.36 0.35 0.33 0.30 0.28 0.27 0.30 0.30 0.34 0.46 0.51 0.61 0.65 0.64 0.74 0.68 0.64 0.54 0.56 0.66 0.70 0.74
1.04 0.92 0.80 0.74 0.68 0.70 0.77 0.75 0.92 1.07 0.91 0.72 0.64 0.63 0.55 0.50 0.47 0.45 0.43 0.46 0.44 0.42 0.40 0.38 0.36 0.30 0.27 0.27 0.28 0.33 0.41 0.44 0.50 0.58 0.54 0.65 0.67 0.60 0.55 0.55 0.59 0.69 0.74
1.01 0.93 0.92 1.00 0.99 0.97 0.98 1.05 1.18 1.50 1.37 1.00 0.80 0.68 0.62 0.53 0.49 0.51 0.47 0.49 0.52 0.50 0.50 0.51 0.45 0.38 0.35 0.34 0.34 0.38 0.39 0.32 0.40 0.40 0.40 0.47 0.62 0.52 0.43 0.45 0.49 0.53 0.61
0.76 0.81 0.87 0.92 0.94 0.97 0.96 1.12 1.38 1.66 1.73 1.38 1.10 0.94 0.77 0.53 0.55 0.60 0.51 0.60 0.63 0.62 0.62 0.62 0.57 0.49 0.45 0.39 0.38 0.38 0.31 0.24 0.42 0.42 0.40 0.44 0.56 0.49 0.38 0.31 0.28 0.35 0.40
0.59 0.56 0.58 0.61 0.67 0.72 0.77 1.04 1.27 1.33 1.53 1.31 1.28 1.12 0.96 0.89 0.84 0.65 0.60 0.72 0.74 0.73 0.71 0.71 0.70 0.57 0.44 0.33 0.30 0.30 0.22 0.23 0.35 0.36 0.30 0.49 0.66 0.55 0.37 0.29 0.23 0.24 0.25
0.54 0.51 0.45 0.46 0.48 0.54 0.67 0.88 1.10 1.23 1.40 1.41 1.39 1.33 1.32 1.25 0.91 0.74 0.80 0.82 0.81 0.78 0.66 0.67 0.65 0.49 0.36 0.31 0.30 0.24 0.18 0.20 0.25 0.27 0.30 0.50 0.69 0.61 0.41 0.29 0.21 0.20 0.21
0.49 0.56 0.49 0.37 0.37 0.39 0.47 0.66 0.86 1.07 1.26 1.31 1.14 1.06 1.19 1.19 0.98 0.84 0.95 1.02 0.98 0.91 0.86 0.83 0.71 0.57 0.40 0.32 0.27 0.24 0.21 0.22 0.24 0.24 0.32 0.34 0.53 0.59 0.47 0.32 0.23 0.18 0.17
0.46 0.54 0.56 0.48 0.40 0.39 0.44 0.51 0.58 0.87 1.05 1.20 1.25 1.03 1.15 1.18 1.09 0.94 0.88 1.03 0.98 0.95 0.94 0.92 0.84 0.69 0.55 0.40 0.37 0.32 0.32 0.28 0.24 0.18 0.29 0.28 0.37 0.51 0.54 0.43 0.31 0.20 0.15
0.40 0.47 0.52 0.55 0.54 0.50 0.49 0.51 0.51 0.56 0.67 0.79 0.75 0.72 0.91 1.02 0.99 0.98 0.83 0.86 0.91 1.01 1.14 1.14 0.94 0.80 0.69 0.52 0.45 0.43 0.40 0.32 0.27 0.19 0.25 0.25 0.24 0.32 0.41 0.48 0.42 0.28 0.22
0.39 0.42 0.47 0.54 0.61 0.62 0.63 0.71 0.64 0.59 0.64 0.63 0.60 0.61 0.71 0.81 0.83 0.95 0.89 0.84 0.85 1.02 1.16 1.22 1.09 0.96 0.78 0.65 0.54 0.48 0.39 0.32 0.27 0.24 0.23 0.24 0.20 0.24 0.34 0.47 0.52 0.44 0.33
0.37 0.37 0.39 0.43 0.48 0.53 0.60 0.68 0.73 0.73 0.75 0.71 0.73 0.69 0.65 0.77 0.89 0.99 0.99 0.89 0.88 1.04 1.19 1.25 1.26 1.18 0.99 0.86 0.70 0.57 0.46 0.40 0.36 0.31 0.31 0.28 0.25 0.23 0.31 0.36 0.48 0.56 0.50
0.35 0.32 0.31 0.32 0.32 0.35 0.42 0.54 0.65 0.72 0.80 0.86 0.87 0.84 0.82 0.85 0.88 1.00 1.11 1.11 1.10 1.14 1.18 1.19 1.17 1.10 1.00 0.90 0.80 0.70 0.58 0.50 0.44 0.35 0.35 0.37 0.35 0.29 0.27 0.23 0.27 0.29 0.38
0.29 0.30 0.30 0.31 0.30 0.27 0.31 0.45 0.55 0.61 0.70 0.86 0.93 0.99 1.25 1.33 1.11 1.06 1.13 1.13 1.15 1.21 1.22 1.31 1.38 1.23 1.04 1.01 0.98 0.84 0.70 0.55 0.47 0.39 0.38 0.39 0.38 0.33 0.29 0.22 0.22 0.16 0.22
0.15 0.14 0.18 0.24 0.31 0.29 0.26 0.32 0.43 0.52 0.66 0.80 0.95 1.03 1.26 1.35 1.25 1.26 1.23 1.19 1.16 1.17 1.22 1.39 1.58 1.46 1.25 1.12 1.15 1.00 0.80 0.62 0.51 0.45 0.38 0.39 0.42 0.36 0.35 0.36 0.28 0.21 0.14
0.05 0.07 0.10 0.15 0.24 0.32 0.35 0.40 0.53 0.70 0.83 0.92 1.05 1.11 1.23 1.24 1.22 1.14 1.26 1.34 1.27 1.32 1.38 1.51 1.63 1.66 1.47 1.30 1.41 1.55 1.21 0.89 0.56 0.42 0.39 0.34 0.37 0.39 0.34 0.36 0.34 0.25 0.16
0.03 0.05 0.11 0.19 0.33 0.50 0.66 0.88 1.13 1.40 1.52 1.41 1.26 1.33 1.46 1.52 1.47 1.38 1.44 1.56 1.46 1.47 1.47 1.51 1.52 1.77 1.79 1.60 1.57 1.82 1.46 1.20 1.07 0.59 0.39 0.39 0.43 0.45 0.40 0.36 0.33 0.34 0.29
0.11 0.17 0.28 0.40 0.57 0.74 0.95 1.17 1.43 1.66 1.82 1.84 1.85 1.88 1.86 1.80 1.68 1.56 1.55 1.58 1.58 1.61 1.52 1.42 1.52 1.78 2.07 1.99 1.85 1.65 1.39 1.21 1.29 1.06 0.66 0.46 0.48 0.48 0.48 0.41 0.41 0.43 0.41
0.28 0.41 0.53 0.76 0.93 1.06 1.13 1.23 1.45 1.56 1.63 1.74 1.88 1.93 1.91 1.82 1.69 1.56 1.50 1.51 1.56 1.63 1.59 1.62 1.75 1.95 2.13 2.24 2.14 1.88 1.59 1.34 1.03 1.03 1.01 0.82 0.62 0.47 0.44 0.45 0.50 0.50 0.46
0.57 0.81 0.96 1.07 1.16 1.16 1.14 1.16 1.30 1.43 1.52 1.60 1.73 1.79 1.73 1.58 1.52 1.50 1.48 1.41 1.35 1.41 1.50 1.65 1.87 1.96 2.09 2.24 2.20 1.92 1.70 1.50 1.30 1.17 1.00 1.00 0.99 0.72 0.55 0.50 0.48 0.49 0.50

GEFSSE_prec_meanprecacc_090.txt.gz
Total_Precipitation_Accumulation
0.53 0.27 0.43 0.44 0.36 0.30 0.29 0.30 0.32 0.30 0.31 0.32 0.30 0.28 0.23 0.20 0.16 0.17 0.17 0.16 0.16 0.19 0.23 0.27 0.28 0.30 0.30 0.32 0.38 0.44 0.46 0.45 0.40 0.32 0.28 0.28 0.31 0.37 0.50 0.62 0.85 1.14 0.77
0.40 0.26 0.42 0.47 0.38 0.32 0.29 0.26 0.28 0.28 0.30 0.30 0.30 0.27 0.23 0.19 0.16 0.17 0.16 0.15 0.15 0.17 0.20 0.25 0.30 0.32 0.36 0.38 0.48 0.56 0.55 0.51 0.51 0.48 0.51 0.53 0.44 0.42 0.43 0.55 0.93 1.12 0.78
0.33 0.25 0.31 0.41 0.38 0.35 0.33 0.30 0.29 0.34 0.34 0.29 0.32 0.28 0.27 0.23 0.20 0.19 0.17 0.15 0.15 0.16 0.18 0.24 0.33 0.38 0.39 0.48 0.56 0.60 0.62 0.61 0.60 0.58 0.83 1.22 0.85 0.55 0.54 0.59 0.66 0.69 0.67
0.29 0.26 0.34 0.46 0.44 0.45 0.42 0.40 0.44 0.45 0.41 0.40 0.42 0.37 0.36 0.30 0.25 0.23 0.21 0.18 0.19 0.20 0.22 0.26 0.33 0.42 0.45 0.47 0.51 0.53 0.55 0.61 0.67 0.60 0.91 1.27 1.19 0.76 0.69 0.73 0.63 0.64 0.70
0.32 0.32 0.48 0.60 0.59 0.57 0.52 0.53 0.58 0.56 0.51 0.50 0.49 0.47 0.48 0.42 0.39 0.32 0.28 0.27 0.26 0.29 0.32 0.30 0.34 0.41 0.47 0.49 0.49 0.48 0.52 0.71 0.66 0.57 0.80 1.03 1.24 0.94 0.76 0.81 0.73 0.67 0.73
0.42 0.39 0.50 0.61 0.66 0.66 0.55 0.56 0.64 0.60 0.57 0.52 0.46 0.48 0.49 0.46 0.46 0.39 0.40 0.40 0.35 0.35 0.36 0.37 0.39 0.41 0.45 0.49 0.50 0.56 0.66 0.70 0.60 0.73 0.85 1.01 1.17 0.93 0.74 0.73 0.79 0.80 0.83
0.44 0.36 0.40 0.61 0.66 0.64 0.61 0.65 0.73 0.67 0.62 0.52 0.48 0.52 0.53 0.52 0.50 0.47 0.47 0.47 0.43 0.39 0.38 0.39 0.39 0.40 0.42 0.47 0.48 0.51 0.60 0.63 0.74 0.86 0.82 1.00 0.97 0.79 0.68 0.68 0.82 0.84 0.84
0.69 0.54 0.48 0.63 0.67 0.66 0.69 0.74 0.81 0.83 0.72 0.59 0.54 0.54 0.52 0.53 0.51 0.50 0.50 0.50 0.48 0.46 0.45 0.42 0.41 0.40 0.36 0.38 0.38 0.40 0.51 0.55 0.65 0.73 0.76 0.89 0.84 0.72 0.59 0.60 0.72 0.78 0.82
1.04 0.92 0.81 0.75 0.68 0.70 0.77 0.76 0.92 1.07 0.91 0.73 0.65 0.64 0.57 0.52 0.50 0.49 0.48 0.51 0.50 0.50 0.48 0.46 0.46 0.42 0.37 0.35 0.36 0.39 0.47 0.49 0.54 0.66 0.61 0.80 0.80 0.68 0.60 0.60 0.65 0.76 0.83
1.01 0.94 0.93 1.00 0.99 0.97 0.98 1.05 1.18 1.50 1.37 1.00 0.80 0.69 0.64 0.56 0.51 0.54 0.50 0.52 0.56 0.55 0.55 0.57 0.55 0.51 0.48 0.44 0.42 0.45 0.46 0.37 0.44 0.45 0.48 0.59 0.73 0.60 0.51 0.51 0.54 0.59 0.69
0.76 0.81 0.87 0.92 0.94 0.97 0.96 1.12 1.38 1.66 1.73 1.38 1.10 0.95 0.78 0.53 0.56 0.63 0.55 0.63 0.67 0.66 0.67 0.71 0.69 0.63 0.59 0.50 0.46 0.46 0.37 0.29 0.48 0.49 0.48 0.55 0.64 0.55 0.44 0.36 0.34 0.41 0.45
0.59 0.56 0.58 0.61 0.67 0.72 0.77 1.04 1.27 1.33 1.53 1.31 1.28 1.13 0.98 0.92 0.87 0.68 0.62 0.74 0.78 0.78 0.76 0.78 0.78 0.65 0.54 0.42 0.41 0.38 0.26 0.26 0.39 0.42 0.38 0.58 0.73 0.61 0.42 0.35 0.29 0.31 0.31
0.54 0.51 0.45 0.46 0.48 0.54 0.67 0.88 1.10 1.23 1.40 1.41 1.39 1.33 1.32 1.27 0.94 0.77 0.84 0.86 0.85 0.83 0.73 0.76 0.74 0.55 0.42 0.40 0.42 0.32 0.24 0.25 0.30 0.34 0.41 0.60 0.76 0.68 0.47 0.35 0.27 0.26 0.27
0.49 0.56 0.49 0.37 0.37 0.39 0.47 0.66 0.86 1.07 1.26 1.31 1.14 1.06 1.19 1.20 1.01 0.88 1.00 1.07 1.03 0.97 0.95 0.96 0.86 0.69 0.50 0.42 0.37 0.34 0.29 0.29 0.30 0.34 0.44 0.45 0.61 0.65 0.56 0.39 0.29 0.24 0.24
0.46 0.54 0.56 0.48 0.40 0.39 0.44 0.51 0.58 0.87 1.05 1.20 1.25 1.03 1.15 1.19 1.11 0.98 0.92 1.08 1.03 1.01 1.02 1.02 0.96 0.82 0.67 0.51 0.47 0.42 0.44 0.38 0.32 0.25 0.37 0.36 0.43 0.56 0.62 0.50 0.39 0.26 0.22
0.40 0.47 0.52 0.55 0.54 0.50 0.49 0.51 0.51 0.56 0.67 0.79 0.76 0.73 0.92 1.03 1.00 0.99 0.86 0.91 0.97 1.07 1.22 1.21 1.01 0.90 0.80 0.65 0.58 0.54 0.53 0.44 0.38 0.26 0.32 0.34 0.28 0.34 0.45 0.54 0.48 0.36 0.29
0.39 0.42 0.47 0.54 0.61 0.62 0.63 0.71 0.64 0.59 0.64 0.63 0.60 0.61 0.72 0.82 0.84 0.97 0.93 0.89 0.91 1.08 1.22 1.29 1.17 1.06 0.88 0.75 0.67 0.62 0.52 0.46 0.42 0.32 0.31 0.35 0.30 0.28 0.36 0.50 0.57 0.52 0.41
0.37 0.37 0.39 0.43 0.48 0.53 0.60 0.68 0.73 0.73 0.75 0.71 0.74 0.70 0.66 0.79 0.90 1.02 1.05 0.95 0.94 1.10 1.24 1.31 1.35 1.28 1.11 0.98 0.84 0.70 0.59 0.55 0.51 0.39 0.38 0.36 0.36 0.32 0.36 0.39 0.51 0.61 0.58
0.35 0.32 0.31 0.32 0.32 0.35 0.42 0.54 0.65 0.72 0.80 0.86 0.88 0.86 0.84 0.87 0.91 1.03 1.17 1.18 1.16 1.21 1.24 1.24 1.26 1.19 1.12 1.04 0.92 0.85 0.72 0.63 0.57 0.43 0.43 0.46 0.46 0.43 0.41 0.29 0.30 0.31 0.43
0.29 0.30 0.30 0.31 0.30 0.27 0.31 0.45 0.56 0.63 0.71 0.87 0.94 1.00 1.27 1.35 1.13 1.09 1.18 1.20 1.22 1.31 1.30 1.39 1.47 1.31 1.13 1.12 1.08 0.98 0.84 0.66 0.56 0.49 0.50 0.54 0.51 0.45 0.45 0.35 0.29 0.18 0.23
0.15 0.14 0.18 0.24 0.31 0.29 0.26 0.33 0.44 0.53 0.67 0.81 0.97 1.04 1.27 1.37 1.28 1.28 1.28 1.25 1.22 1.25 1.29 1.45 1.66 1.54 1.33 1.21 1.26 1.13 0.93 0.72 0.60 0.54 0.50 0.53 0.53 0.47 0.50 0.53 0.41 0.29 0.18
0.05 0.07 0.10 0.15 0.24 0.32 0.36 0.41 0.53 0.71 0.83 0.93 1.06 1.12 1.24 1.26 1.25 1.17 1.30 1.38 1.31 1.37 1.43 1.56 1.70 1.73 1.54 1.37 1.49 1.67 1.35 1.04 0.68 0.49 0.47 0.43 0.47 0.50 0.48 0.48 0.46 0.38 0.26
0.03 0.05 0.11 0.19 0.33 0.50 0.66 0.88 1.13 1.41 1.53 1.42 1.27 1.34 1.46 1.53 1.49 1.40 1.46 1.59 1.50 1.50 1.52 1.56 1.58 1.83 1.85 1.66 1.64 1.92 1.59 1.36 1.24 0.70 0.46 0.43 0.53 0.56 0.54 0.50 0.44 0.47 0.43
0.11 0.17 0.28 0.40 0.57 0.74 0.95 1.17 1.43 1.66 1.82 1.84 1.86 1.89 1.87 1.81 1.68 1.57 1.57 1.61 1.61 1.65 1.55 1.45 1.56 1.83 2.12 2.06 1.92 1.72 1.48 1.31 1.42 1.20 0.77 0.53 0.56 0.57 0.59 0.54 0.51 0.53 0.53
0.28 0.41 0.53 0.76 0.93 1.06 1.13 1.23 1.45 1.56 1.63 1.74 1.88 1.93 1.92 1.83 1.69 1.56 1.51 1.53 1.59 1.66 1.63 1.65 1.78 1.99 2.18 2.30 2.21 1.96 1.65 1.40 1.09 1.13 1.12 0.92 0.71 0.56 0.52 0.59 0.63 0.59 0.55
0.57 0.81 0.96 1.07 1.16 1.16 1.14 1.16 1.30 1.43 1.52 1.60 1.73 1.79 1.73 1.58 1.52 1.50 1.49 1.44 1.38 1.45 1.54 1.67 1.89 1.98 2.11 2.27 2.25 1.98 1.75 1.54 1.35 1.24 1.09 1.08 1.08 0.81 0.63 0.60 0.60 0.59 0.59

GEFSSE_prec_meanprecacc_096.txt.gz
Total_Precipitation_Accumulation
0.60 0.31 0.47 0.46 0.37 0.31 0.30 0.32 0.32 0.31 0.32 0.33 0.31 0.28 0.24 0.21 0.18 0.19 0.19 0.17 0.17 0.19 0.24 0.28 0.29 0.31 0.31 0.32 0.38 0.45 0.47 0.46 0.41 0.33 0.30 0.31 0.34 0.41 0.53 0.65 0.90 1.19 0.82
0.43 0.28 0.46 0.49 0.39 0.32 0.29 0.27 0.28 0.28 0.30 0.31 0.31 0.27 0.24 0.20 0.18 0.19 0.18 0.16 0.16 0.17 0.21 0.26 0.31 0.33 0.36 0.39 0.49 0.57 0.55 0.52 0.52 0.49 0.52 0.56 0.49 0.46 0.47 0.60 0.99 1.17 0.84
0.34 0.27 0.33 0.44 0.39 0.35 0.33 0.30 0.29 0.34 0.34 0.30 0.32 0.29 0.28 0.24 0.22 0.21 0.18 0.17 0.17 0.18 0.19 0.24 0.33 0.38 0.40 0.49 0.57 0.61 0.63 0.62 0.62 0.59 0.85 1.25 0.90 0.61 0.61 0.65 0.73 0.76 0.72
0.29 0.27 0.35 0.48 0.46 0.45 0.42 0.40 0.45 0.45 0.41 0.40 0.42 0.37 0.36 0.31 0.26 0.24 0.22 0.20 0.20 0.22 0.24 0.27 0.35 0.43 0.46 0.48 0.52 0.54 0.56 0.62 0.69 0.62 0.93 1.29 1.23 0.85 0.78 0.81 0.70 0.70 0.77
0.32 0.33 0.50 0.63 0.60 0.58 0.52 0.53 0.58 0.56 0.52 0.50 0.49 0.48 0.48 0.43 0.39 0.33 0.29 0.28 0.27 0.30 0.33 0.32 0.36 0.43 0.48 0.50 0.50 0.49 0.53 0.72 0.67 0.59 0.82 1.06 1.28 1.02 0.85 0.88 0.78 0.73 0.80
0.43 0.39 0.51 0.63 0.68 0.67 0.56 0.56 0.65 0.60 0.57 0.52 0.47 0.49 0.49 0.46 0.46 0.40 0.41 0.40 0.35 0.36 0.38 0.39 0.42 0.43 0.47 0.51 0.51 0.57 0.67 0.72 0.61 0.75 0.87 1.05 1.21 1.01 0.83 0.80 0.83 0.85 0.89
0.45 0.36 0.41 0.63 0.67 0.65 0.61 0.65 0.73 0.67 0.62 0.53 0.48 0.52 0.54 0.53 0.50 0.48 0.48 0.48 0.45 0.41 0.40 0.42 0.42 0.43 0.45 0.49 0.50 0.52 0.61 0.66 0.76 0.88 0.86 1.03 1.01 0.87 0.76 0.74 0.87 0.89 0.89
0.69 0.54 0.49 0.64 0.68 0.66 0.69 0.74 0.82 0.83 0.72 0.59 0.55 0.55 0.53 0.53 0.52 0.52 0.52 0.52 0.50 0.48 0.48 0.46 0.45 0.44 0.39 0.41 0.40 0.42 0.53 0.58 0.66 0.76 0.80 0.93 0.90 0.82 0.68 0.67 0.76 0.83 0.88
1.04 0.93 0.81 0.75 0.69 0.71 0.77 0.76 0.92 1.07 0.91 0.73 0.65 0.64 0.57 0.52 0.51 0.51 0.50 0.54 0.52 0.52 0.50 0.49 0.51 0.46 0.41 0.39 0.39 0.42 0.51 0.53 0.55 0.68 0.66 0.86 0.92 0.79 0.69 0.67 0.69 0.81 0.89
1.01 0.94 0.93 1.00 0.99 0.98 0.98 1.05 1.18 1.50 1.37 1.00 0.80 0.69 0.64 0.56 0.53 0.57 0.53 0.55 0.59 0.58 0.58 0.61 0.59 0.55 0.54 0.49 0.47 0.50 0.51 0.41 0.46 0.47 0.51 0.66 0.87 0.72 0.60 0.57 0.58 0.62 0.74
0.76 0.81 0.87 0.92 0.94 0.97 0.96 1.12 1.38 1.66 1.73 1.38 1.10 0.95 0.78 0.54 0.57 0.65 0.58 0.66 0.70 0.69 0.71 0.75 0.73 0.67 0.64 0.55 0.52 0.52 0.42 0.31 0.50 0.52 0.53 0.65 0.78 0.68 0.52 0.42 0.38 0.45 0.50
0.59 0.56 0.58 0.61 0.67 0.72 0.77 1.04 1.27 1.33 1.53 1.31 1.28 1.13 0.98 0.92 0.87 0.69 0.64 0.78 0.83 0.81 0.79 0.82 0.84 0.70 0.58 0.45 0.44 0.44 0.30 0.30 0.44 0.46 0.44 0.70 0.88 0.75 0.51 0.41 0.35 0.37 0.36
0.54 0.51 0.45 0.46 0.48 0.54 0.67 0.88 1.10 1.23 1.40 1.41 1.39 1.33 1.32 1.27 0.94 0.77 0.84 0.87 0.87 0.86 0.75 0.78 0.77 0.58 0.45 0.42 0.45 0.36 0.28 0.30 0.38 0.42 0.49 0.72 0.92 0.83 0.56 0.41 0.32 0.31 0.32
0.49 0.56 0.49 0.37 0.37 0.39 0.47 0.66 0.86 1.07 1.26 1.31 1.14 1.06 1.19 1.20 1.01 0.88 1.00 1.08 1.04 0.99 0.97 0.97 0.88 0.71 0.53 0.46 0.43 0.42 0.37 0.39 0.41 0.44 0.53 0.55 0.75 0.79 0.66 0.45 0.34 0.28 0.28
0.46 0.54 0.56 0.48 0.40 0.39 0.44 0.51 0.58 0.87 1.05 1.20 1.25 1.03 1.15 1.19 1.11 0.98 0.92 1.09 1.04 1.02 1.03 1.03 0.98 0.85 0.72 0.58 0.55 0.51 0.53 0.49 0.44 0.35 0.47 0.47 0.56 0.68 0.73 0.60 0.45 0.31 0.26
0.40 0.47 0.52 0.55 0.54 0.50 0.49 0.51 0.51 0.56 0.67 0.79 0.76 0.73 0.92 1.03 1.00 1.00 0.86 0.91 0.98 1.08 1.23 1.22 1.04 0.93 0.83 0.70 0.68 0.64 0.62 0.56 0.52 0.39 0.43 0.45 0.39 0.43 0.53 0.63 0.57 0.43 0.34
0.39 0.42 0.47 0.54 0.61 0.62 0.63 0.71 0.64 0.59 0.64 0.64 0.60 0.61 0.72 0.82 0.84 0.97 0.94 0.90 0.91 1.09 1.24 1.31 1.20 1.09 0.91 0.79 0.74 0.71 0.62 0.62 0.62 0.49 0.45 0.46 0.37 0.33 0.41 0.58 0.67 0.60 0.48
0.37 0.37 0.39 0.43 0.48 0.53 0.60 0.68 0.73 0.73 0.75 0.71 0.74 0.70 0.66 0.79 0.91 1.02 1.05 0.95 0.94 1.11 1.26 1.34 1.38 1.31 1.15 1.01 0.89 0.78 0.69 0.73 0.70 0.57 0.55 0.53 0.51 0.41 0.42 0.44 0.57 0.68 0.66
0.35 0.32 0.31 0.32 0.32 0.35 0.42 0.54 0.65 0.72 0.80 0.86 0.88 0.86 0.84 0.87 0.91 1.03 1.17 1.18 1.17 1.23 1.26 1.27 1.28 1.21 1.15 1.08 0.97 0.90 0.80 0.77 0.74 0.63 0.61 0.64 0.64 0.57 0.50 0.34 0.34 0.35 0.48
0.29 0.30 0.30 0.31 0.30 0.27 0.31 0.45 0.56 0.63 0.71 0.87 0.94 1.00 1.27 1.35 1.14 1.09 1.18 1.20 1.23 1.33 1.32 1.41 1.50 1.33 1.15 1.16 1.12 1.02 0.89 0.78 0.69 0.66 0.70 0.73 0.69 0.61 0.59 0.45 0.35 0.22 0.28
0.15 0.14 0.18 0.24 0.31 0.29 0.26 0.33 0.44 0.53 0.67 0.81 0.97 1.04 1.27 1.37 1.28 1.29 1.28 1.25 1.24 1.27 1.30 1.46 1.68 1.56 1.35 1.24 1.29 1.17 0.98 0.81 0.71 0.69 0.66 0.72 0.73 0.66 0.66 0.69 0.52 0.35 0.22
0.05 0.07 0.10 0.15 0.24 0.32 0.36 0.41 0.53 0.71 0.83 0.93 1.06 1.13 1.24 1.26 1.25 1.17 1.30 1.38 1.32 1.37 1.44 1.57 1.71 1.76 1.57 1.40 1.52 1.71 1.40 1.10 0.78 0.67 0.65 0.60 0.68 0.70 0.63 0.61 0.58 0.48 0.34
0.03 0.05 0.11 0.19 0.33 0.50 0.66 0.88 1.13 1.41 1.53 1.42 1.27 1.34 1.47 1.53 1.49 1.41 1.47 1.59 1.50 1.50 1.53 1.57 1.60 1.86 1.88 1.68 1.66 1.95 1.62 1.40 1.30 0.83 0.61 0.57 0.68 0.73 0.70 0.65 0.58 0.60 0.57
0.11 0.17 0.28 0.40 0.57 0.74 0.95 1.17 1.43 1.66 1.82 1.84 1.86 1.89 1.87 1.81 1.69 1.58 1.58 1.61 1.62 1.66 1.56 1.46 1.59 1.87 2.16 2.09 1.94 1.74 1.50 1.34 1.46 1.26 0.86 0.64 0.68 0.71 0.75 0.70 0.64 0.66 0.68
0.28 0.41 0.53 0.76 0.93 1.06 1.13 1.23 1.45 1.56 1.63 1.74 1.88 1.93 1.93 1.84 1.70 1.56 1.51 1.53 1.59 1.67 1.64 1.66 1.81 2.03 2.22 2.34 2.26 1.99 1.67 1.41 1.11 1.16 1.17 1.00 0.80 0.64 0.63 0.73 0.80 0.73 0.69
0.57 0.81 0.96 1.07 1.16 1.16 1.14 1.16 1.30 1.43 1.52 1.60 1.73 1.79 1.73 1.58 1.53 1.50 1.49 1.44 1.39 1.45 1.54 1.68 1.90 2.00 2.14 2.30 2.29 2.01 1.77 1.56 1.36 1.26 1.11 1.13 1.13 0.86 0.70 0.69 0.73 0.74 0.71

GEFSSE_prec_meanprecacc_102.txt.gz
Total_Precipitation_Accumulation
0.61 0.33 0.55 0.54 0.44 0.36 0.34 0.35 0.35 0.34 0.34 0.34 0.32 0.30 0.26 0.23 0.20 0.21 0.20 0.17 0.17 0.20 0.25 0.30 0.31 0.33 0.32 0.33 0.39 0.45 0.47 0.46 0.42 0.33 0.30 0.32 0.36 0.44 0.58 0.70 0.93 1.21 0.85
0.43 0.29 0.52 0.55 0.44 0.37 0.33 0.30 0.31 0.31 0.32 0.32 0.32 0.29 0.26 0.23 0.21 0.22 0.21 0.18 0.17 0.18 0.22 0.27 0.32 0.35 0.38 0.39 0.50 0.58 0.56 0.52 0.53 0.49 0.53 0.57 0.51 0.48 0.51 0.64 1.03 1.21 0.88
0.36 0.29 0.37 0.50 0.45 0.41 0.38 0.34 0.32 0.36 0.35 0.31 0.33 0.30 0.30 0.26 0.24 0.23 0.21 0.19 0.18 0.19 0.20 0.25 0.34 0.39 0.41 0.50 0.58 0.62 0.64 0.63 0.62 0.60 0.85 1.25 0.92 0.64 0.65 0.70 0.76 0.80 0.79
0.31 0.29 0.38 0.54 0.54 0.52 0.47 0.43 0.46 0.47 0.43 0.43 0.44 0.40 0.38 0.34 0.29 0.27 0.25 0.24 0.23 0.24 0.26 0.28 0.36 0.44 0.48 0.49 0.52 0.55 0.57 0.63 0.69 0.63 0.93 1.29 1.23 0.89 0.83 0.86 0.74 0.74 0.82
0.34 0.35 0.53 0.68 0.66 0.63 0.57 0.55 0.60 0.57 0.53 0.52 0.51 0.49 0.50 0.44 0.41 0.35 0.32 0.32 0.31 0.34 0.36 0.35 0.39 0.45 0.52 0.53 0.52 0.51 0.55 0.73 0.68 0.60 0.82 1.06 1.28 1.05 0.90 0.93 0.83 0.77 0.84
0.47 0.41 0.53 0.66 0.71 0.70 0.58 0.59 0.67 0.62 0.59 0.53 0.48 0.50 0.51 0.48 0.48 0.42 0.43 0.44 0.40 0.41 0.44 0.45 0.46 0.48 0.53 0.56 0.54 0.59 0.69 0.74 0.63 0.75 0.87 1.05 1.21 1.04 0.88 0.84 0.87 0.89 0.94
0.46 0.37 0.42 0.64 0.69 0.67 0.63 0.67 0.75 0.69 0.64 0.54 0.49 0.53 0.55 0.54 0.52 0.50 0.51 0.51 0.49 0.45 0.46 0.50 0.50 0.50 0.51 0.55 0.55 0.58 0.66 0.68 0.77 0.89 0.86 1.04 1.02 0.92 0.82 0.79 0.91 0.94 0.94
0.69 0.54 0.49 0.66 0.69 0.68 0.70 0.75 0.82 0.83 0.72 0.60 0.55 0.55 0.53 0.54 0.54 0.55 0.55 0.55 0.54 0.52 0.53 0.52 0.52 0.51 0.46 0.47 0.46 0.48 0.60 0.62 0.67 0.76 0.80 0.94 0.93 0.89 0.75 0.72 0.81 0.89 0.95
1.05 0.93 0.82 0.76 0.70 0.73 0.79 0.76 0.92 1.07 0.91 0.73 0.65 0.65 0.58 0.53 0.52 0.52 0.53 0.57 0.57 0.57 0.55 0.54 0.55 0.52 0.48 0.45 0.45 0.49 0.60 0.59 0.58 0.69 0.67 0.87 0.97 0.89 0.77 0.73 0.77 0.89 0.97
1.02 0.94 0.93 1.00 1.00 0.98 0.99 1.05 1.18 1.50 1.37 1.00 0.81 0.69 0.65 0.57 0.54 0.58 0.55 0.57 0.62 0.63 0.64 0.66 0.63 0.60 0.59 0.55 0.53 0.57 0.60 0.48 0.49 0.49 0.53 0.69 0.97 0.84 0.70 0.67 0.66 0.69 0.80
0.77 0.81 0.87 0.92 0.94 0.97 0.96 1.12 1.38 1.66 1.73 1.38 1.10 0.95 0.78 0.54 0.57 0.65 0.58 0.68 0.72 0.73 0.76 0.81 0.79 0.72 0.70 0.61 0.59 0.61 0.50 0.34 0.53 0.54 0.54 0.69 0.91 0.82 0.64 0.52 0.47 0.52 0.57
0.59 0.56 0.58 0.61 0.67 0.72 0.77 1.04 1.27 1.33 1.53 1.31 1.28 1.13 0.98 0.92 0.87 0.69 0.64 0.78 0.84 0.84 0.83 0.87 0.91 0.76 0.62 0.48 0.49 0.51 0.33 0.31 0.46 0.48 0.45 0.75 1.01 0.90 0.65 0.52 0.45 0.45 0.45
0.55 0.51 0.45 0.46 0.48 0.54 0.67 0.88 1.10 1.23 1.40 1.41 1.39 1.33 1.32 1.27 0.94 0.77 0.84 0.87 0.88 0.87 0.77 0.81 0.79 0.60 0.47 0.43 0.47 0.39 0.30 0.31 0.40 0.44 0.50 0.77 1.04 0.98 0.69 0.51 0.43 0.41 0.41
0.49 0.56 0.49 0.37 0.37 0.39 0.47 0.66 0.86 1.07 1.26 1.31 1.14 1.06 1.19 1.20 1.01 0.88 1.00 1.08 1.04 0.99 0.98 0.99 0.89 0.72 0.54 0.47 0.45 0.44 0.39 0.39 0.43 0.47 0.57 0.61 0.86 0.95 0.81 0.58 0.46 0.39 0.40
0.46 0.54 0.56 0.48 0.40 0.39 0.44 0.51 0.58 0.87 1.05 1.20 1.25 1.03 1.15 1.19 1.11 0.98 0.92 1.09 1.04 1.02 1.03 1.04 0.99 0.86 0.73 0.59 0.56 0.53 0.55 0.51 0.47 0.39 0.52 0.53 0.66 0.84 0.89 0.76 0.59 0.45 0.42
0.40 0.47 0.52 0.55 0.54 0.50 0.49 0.51 0.51 0.56 0.67 0.79 0.76 0.73 0.92 1.03 1.00 1.00 0.86 0.91 0.98 1.08 1.23 1.22 1.05 0.95 0.84 0.71 0.70 0.68 0.65 0.60 0.56 0.42 0.48 0.51 0.47 0.52 0.64 0.76 0.72 0.60 0.54
0.39 0.42 0.47 0.54 0.61 0.62 0.63 0.71 0.64 0.59 0.64 0.64 0.60 0.61 0.72 0.82 0.84 0.97 0.94 0.90 0.91 1.09 1.25 1.32 1.21 1.10 0.91 0.81 0.76 0.74 0.66 0.67 0.66 0.52 0.49 0.52 0.45 0.39 0.49 0.68 0.79 0.76 0.67
0.37 0.37 0.39 0.43 0.48 0.53 0.60 0.68 0.73 0.73 0.75 0.71 0.74 0.70 0.66 0.79 0.91 1.03 1.05 0.96 0.95 1.11 1.26 1.35 1.38 1.32 1.16 1.03 0.91 0.80 0.74 0.79 0.75 0.61 0.58 0.59 0.59 0.48 0.48 0.50 0.64 0.79 0.82
0.36 0.32 0.31 0.32 0.32 0.35 0.42 0.54 0.65 0.72 0.80 0.86 0.88 0.86 0.84 0.87 0.91 1.04 1.18 1.18 1.17 1.23 1.27 1.28 1.30 1.23 1.16 1.10 0.99 0.93 0.84 0.83 0.80 0.68 0.65 0.70 0.72 0.66 0.57 0.39 0.39 0.41 0.59
0.29 0.30 0.30 0.31 0.30 0.27 0.31 0.45 0.56 0.63 0.71 0.87 0.94 1.00 1.27 1.35 1.14 1.09 1.19 1.21 1.23 1.33 1.33 1.43 1.51 1.35 1.17 1.19 1.17 1.06 0.93 0.84 0.75 0.72 0.75 0.79 0.77 0.71 0.67 0.51 0.40 0.26 0.34
0.15 0.14 0.18 0.24 0.31 0.29 0.26 0.33 0.44 0.53 0.67 0.81 0.97 1.04 1.27 1.37 1.28 1.29 1.28 1.25 1.25 1.27 1.31 1.47 1.69 1.57 1.37 1.26 1.34 1.22 1.04 0.88 0.77 0.75 0.73 0.80 0.81 0.77 0.77 0.77 0.58 0.40 0.26
0.05 0.07 0.10 0.15 0.24 0.32 0.36 0.41 0.53 0.71 0.83 0.93 1.06 1.13 1.24 1.26 1.25 1.17 1.30 1.39 1.32 1.38 1.45 1.58 1.72 1.76 1.58 1.42 1.57 1.77 1.45 1.16 0.87 0.77 0.73 0.70 0.78 0.80 0.74 0.69 0.63 0.53 0.38
0.03 0.05 0.11 0.19 0.33 0.50 0.66 0.88 1.13 1.41 1.53 1.42 1.27 1.34 1.47 1.53 1.49 1.41 1.47 1.60 1.51 1.51 1.54 1.58 1.60 1.86 1.89 1.70 1.70 2.02 1.68 1.45 1.40 0.98 0.74 0.67 0.79 0.84 0.80 0.74 0.65 0.66 0.64
0.11 0.17 0.28 0.40 0.57 0.74 0.95 1.17 1.43 1.66 1.82 1.84 1.86 1.89 1.87 1.82 1.70 1.58 1.58 1.61 1.63 1.67 1.57 1.47 1.59 1.88 2.18 2.11 1.97 1.80 1.56 1.38 1.54 1.39 0.96 0.72 0.76 0.79 0.84 0.77 0.71 0.73 0.74
0.28 0.41 0.53 0.76 0.93 1.06 1.13 1.23 1.45 1.56 1.63 1.74 1.88 1.93 1.93 1.84 1.71 1.56 1.51 1.54 1.60 1.68 1.65 1.68 1.81 2.05 2.25 2.37 2.29 2.03 1.72 1.46 1.17 1.24 1.24 1.06 0.85 0.70 0.69 0.78 0.86 0.80 0.75
0.57 0.81 0.96 1.07 1.16 1.16 1.14 1.16 1.30 1.43 1.52 1.60 1.73 1.79 1.73 1.59 1.54 1.50 1.49 1.44 1.39 1.45 1.55 1.69 1.92 2.02 2.16 2.32 2.31 2.03 1.80 1.61 1.40 1.29 1.15 1.18 1.18 0.91 0.74 0.74 0.79 0.79 0.77